Eastsound, WA
on Tuesday, January 29, 2013

Tuesday
Previous Day Next Day
Daily Summary
 ActualAverage (KBLI)Record (KBLI)
Temperature
Mean Temperature °F 40°F  
Max Temperature 46°F 47°F 62°F (1992)
Min Temperature 37°F 33°F -2°F (1950)
Degree Days
Heating Degree Days 24 25  
Month to date heating degree days 748  
Cooling Degree Days 0 0  
Month to date cooling degree days 0  
Year to date cooling degree days 0  
Moisture
Dew Point 41°F   
Average Humidity 93    
Maximum Humidity 100    
Minimum Humidity 81    
Precipitation
Precipitation 0.00 in 0.14 in 0.82 in (1960)
Month to date precipitation 4.39  
Year to date precipitation 4.39  
Wind
Wind Speed 2 mph   
Max Wind Speed 13 mph   
Max Gust Speed mph   
Visibility 9 miles   
Events Rain   

Key: T is trace of precipitation, MM is missing value
Source: NWS Daily Summary
Time(PST)TemperatureDew PointHumidity Pressure Visibility Wind DirectionWind SpeedGust SpeedPrecipitationEvents Conditions
12:15 AM 39.2°F 39.2°F 100% 30.03 in 9.0 miles Calm Calm - N/A   Clear
12:35 AM 39.2°F 37.4°F 93% 30.04 in 10.0 miles Calm Calm - N/A   Partly Cloudy
12:55 AM 39.2°F 37.4°F 93% 30.05 in 9.0 miles Calm Calm - N/A   Partly Cloudy
1:15 AM 39.2°F 39.2°F 100% 30.05 in 8.0 miles Calm Calm - N/A   Scattered Clouds
1:35 AM 39.2°F 39.2°F 100% 30.06 in 10.0 miles Calm Calm - N/A   Scattered Clouds
1:55 AM 39.2°F 37.4°F 93% 30.06 in 10.0 miles Calm Calm - N/A   Partly Cloudy
2:15 AM 39.2°F 37.4°F 93% 30.06 in 10.0 miles Calm Calm - N/A   Clear
2:35 AM 39.2°F 37.4°F 93% 30.07 in 10.0 miles Calm Calm - N/A   Partly Cloudy
2:55 AM 39.2°F 37.4°F 93% 30.08 in 10.0 miles Calm Calm - N/A   Clear
3:15 AM 39.2°F 39.2°F 100% 30.09 in 10.0 miles Calm Calm - N/A   Partly Cloudy
3:35 AM 39.2°F 37.4°F 93% 30.10 in 10.0 miles Calm Calm - N/A   Partly Cloudy
3:55 AM 39.2°F 37.4°F 93% 30.11 in 10.0 miles Calm Calm - N/A   Partly Cloudy
4:15 AM 39.2°F 37.4°F 93% 30.10 in 10.0 miles Calm Calm - N/A   Partly Cloudy
4:35 AM 37.4°F 37.4°F 100% 30.11 in 8.0 miles Calm Calm - N/A   Scattered Clouds
4:55 AM 39.2°F 39.2°F 100% 30.13 in 10.0 miles Calm Calm - N/A   Scattered Clouds
5:15 AM 39.2°F 37.4°F 93% 30.14 in 10.0 miles Calm Calm - N/A   Mostly Cloudy
5:35 AM 39.2°F 37.4°F 93% 30.14 in 10.0 miles Calm Calm - N/A   Mostly Cloudy
5:55 AM 39.2°F 39.2°F 100% 30.15 in 10.0 miles Calm Calm - N/A   Mostly Cloudy
6:15 AM 39.2°F 39.2°F 100% 30.15 in 10.0 miles Calm Calm - N/A   Scattered Clouds
6:35 AM 39.2°F 39.2°F 100% 30.16 in 10.0 miles North - - N/A   Scattered Clouds
6:55 AM 39.2°F 39.2°F 100% 30.17 in 10.0 miles Calm Calm - N/A   Scattered Clouds
7:15 AM 39.2°F 39.2°F 100% 30.17 in 10.0 miles North - - N/A   Scattered Clouds
7:35 AM 39.2°F 39.2°F 100% 30.17 in 10.0 miles North - - N/A   Clear
7:55 AM 39.2°F 39.2°F 100% 30.19 in 10.0 miles Calm Calm - N/A   Mostly Cloudy
8:15 AM 39.2°F 39.2°F 100% 30.20 in 10.0 miles North - - N/A   Overcast
8:35 AM 41.0°F 39.2°F 93% 30.21 in 10.0 miles SSW 3.5 mph - N/A   Overcast
8:55 AM 41.0°F 39.2°F 93% 30.22 in 10.0 miles South 3.5 mph - N/A   Overcast
9:15 AM 41.0°F 39.2°F 93% 30.22 in 10.0 miles Calm Calm - N/A   Overcast
9:55 AM 41.0°F 39.2°F 93% 30.24 in 10.0 miles Calm Calm - N/A   Overcast
10:15 AM 42.8°F 39.2°F 87% 30.25 in 10.0 miles Calm Calm - N/A   Overcast
10:35 AM 42.8°F 39.2°F 87% 30.25 in 10.0 miles North - - N/A   Overcast
10:55 AM 42.8°F 39.2°F 87% 30.26 in 10.0 miles Calm Calm - N/A   Mostly Cloudy
11:15 AM 42.8°F 39.2°F 87% 30.26 in 10.0 miles Calm Calm - N/A   Overcast
11:35 AM 44.6°F 39.2°F 81% 30.26 in 10.0 miles Calm Calm - N/A   Overcast
11:55 AM 44.6°F 39.2°F 81% 30.27 in 10.0 miles Calm Calm - N/A   Overcast
12:15 PM 44.6°F 39.2°F 81% 30.27 in 10.0 miles North - - N/A   Overcast
12:35 PM 44.6°F 39.2°F 81% 30.27 in 10.0 miles Calm Calm - N/A   Overcast
12:55 PM 44.6°F 41.0°F 87% 30.26 in 10.0 miles Calm Calm - N/A   Mostly Cloudy
1:15 PM 44.6°F 41.0°F 87% 30.26 in 10.0 miles Calm Calm - N/A   Mostly Cloudy
1:35 PM 44.6°F 39.2°F 81% 30.26 in 10.0 miles Calm Calm - N/A   Mostly Cloudy
1:55 PM 44.6°F 39.2°F 81% 30.27 in 10.0 miles Calm Calm - N/A   Mostly Cloudy
2:15 PM 44.6°F 41.0°F 87% 30.27 in 10.0 miles Calm Calm - N/A   Overcast
2:35 PM 44.6°F 41.0°F 87% 30.26 in 10.0 miles Calm Calm - N/A Rain Light Rain
2:55 PM 44.6°F 41.0°F 87% 30.25 in 10.0 miles Calm Calm - N/A   Mostly Cloudy
3:15 PM 44.6°F 41.0°F 87% 30.27 in 10.0 miles Calm Calm - N/A   Overcast
3:35 PM 44.6°F 41.0°F 87% 30.26 in 10.0 miles Calm Calm - N/A   Mostly Cloudy
3:55 PM 44.6°F 41.0°F 87% 30.26 in 10.0 miles North - - N/A   Mostly Cloudy
4:15 PM 44.6°F 41.0°F 87% 30.26 in 10.0 miles SSW 6.9 mph - N/A   Mostly Cloudy
4:35 PM 44.6°F 41.0°F 87% 30.27 in 10.0 miles South 4.6 mph - N/A   Mostly Cloudy
4:55 PM 44.6°F 41.0°F 87% 30.27 in 10.0 miles North - - N/A   Overcast
5:15 PM 44.6°F 42.8°F 93% 30.27 in 4.0 miles North - - N/A Rain Light Rain
5:35 PM 44.6°F 42.8°F 93% 30.26 in 6.0 miles South 4.6 mph - N/A Rain Light Rain
5:55 PM 44.6°F 42.8°F 93% 30.27 in 5.0 miles South 4.6 mph - N/A Rain Light Rain
6:15 PM 44.6°F 44.6°F 100% 30.27 in 6.0 miles South 4.6 mph - N/A Rain Light Rain
6:35 PM 44.6°F 44.6°F 100% 30.27 in 4.0 miles South 3.5 mph - N/A Rain Rain
6:55 PM 44.6°F 44.6°F 100% 30.27 in 5.0 miles South 4.6 mph - N/A Rain Rain
7:15 PM 44.6°F 44.6°F 100% 30.27 in 5.0 miles South 5.8 mph - N/A Rain Light Rain
7:35 PM 44.6°F 44.6°F 100% 30.27 in 7.0 miles South 4.6 mph - N/A Rain Light Rain
7:55 PM 44.6°F 44.6°F 100% 30.27 in 8.0 miles SSW 9.2 mph - N/A Rain Light Rain
8:15 PM 44.6°F 44.6°F 100% 30.27 in 10.0 miles South 10.4 mph - N/A   Overcast
8:35 PM 44.6°F 44.6°F 100% 30.26 in 10.0 miles South 11.5 mph - N/A   Scattered Clouds
8:55 PM 44.6°F 44.6°F 100% 30.26 in 10.0 miles SSW 10.4 mph - N/A   Partly Cloudy
9:15 PM 44.6°F 44.6°F 100% 30.26 in 10.0 miles South 9.2 mph - N/A   Mostly Cloudy
9:35 PM 44.6°F 44.6°F 100% 30.25 in 10.0 miles SSW 10.4 mph - N/A   Partly Cloudy
10:15 PM 46.4°F 44.6°F 93% 30.26 in 10.0 miles South 9.2 mph - N/A   Overcast
10:35 PM 46.4°F 44.6°F 93% 30.26 in 10.0 miles SSW 8.1 mph - N/A   Overcast
11:15 PM 46.4°F 44.6°F 93% 30.27 in 10.0 miles SSW 11.5 mph - N/A   Mostly Cloudy
11:35 PM 46.4°F 44.6°F 93% 30.27 in 10.0 miles SSW 11.5 mph - N/A   Mostly Cloudy
11:55 PM 44.6°F 44.6°F 100% 30.28 in 10.0 miles South 12.7 mph - N/A   Overcast
Moon Phase
Jan. 29 Feb. 03 Feb. 10 Feb. 17 Feb. 25
Sunrise:07:44 AM (PST) Moon Rise:08:27 PM (PST)
Sunset:05:05 PM (PST) Moon Set:08:26 AM (PST)

Copyright © 2014 The Weather Underground, Inc.